Parkersburg, WV

1:57 PM EST on December 02, 2016 (GMT -0500)
Wood County Wilson

Weather History for KPKB - August, 2013

Change the Weather History Date:

Friday, August 23, 2013

  Actual Average Record
Temperature  
Mean Temperature 73 °F 73 °F  
Max Temperature 83 °F 84 °F 98 °F (1959)
Min Temperature 63 °F 62 °F 47 °F (1888)
Degree Days  
Heating Degree Days 0 0  
Month to date heating degree days 5 0  
Since 1 June heating degree days 11 20  
Since 1 July heating degree days 5 1  
Cooling Degree Days 8 8  
Month to date cooling degree days 138 202  
Year to date cooling degree days 744 769  
Since 1 June cooling degree days 618 685  
Growing Degree Days 23 (Base 50)    
Moisture  
Dew Point 65 °F    
Average Humidity 77    
Maximum Humidity 100    
Minimum Humidity 54    
Precipitation  
Precipitation 1.29 in 0.11 in 1.29 in (2013)
Month to date precipitation 6.11 2.73  
Year to date precipitation 32.34 27.91  
Sea Level Pressure  
Sea Level Pressure 30.09 in    
Wind  
Wind Speed 3 mph (NW)    
Max Wind Speed 13 mph    
Max Gust Speed 22 mph    
Visibility 5 miles    
Events Fog , Rain , Thunderstorm    
T = Trace of Precipitation, MM = Missing Value Source: NWS Daily Summary

Daily Weather History Graph

Daily Weather History Graph

Search for Another Location

Airport or City:

Trip Planner

Search our weather history database for the weather conditions in past years. The results will help you decide how hot, cold, wet, or windy it might be!

Date:

Astronomy

Aug. 23, 2013 Rise Set
Actual Time 6:46 AM EDT 8:09 PM EDT
Civil Twilight 6:18 AM EDT 8:37 PM EDT
Nautical Twilight 5:44 AM EDT 9:11 PM EDT
Astronomical Twilight 5:08 AM EDT 9:46 PM EDT
Moon 9:29 PM EDT (8/23) 9:38 AM EDT (8/23)
Length of Visible Light 14h 19m
Length of Day
13h 23m
Waning Gibbous, 91% of the Moon is Illuminated
Aug 23
Waning Gibbous
Aug 28
Last Quarter
Sep 5
New
Sep 12
First Quarter
Sep 19
Full

Hourly Weather History & Observations

Time (EDT) Temp. Heat Index Dew Point Humidity Pressure Visibility Wind Dir Wind Speed Gust Speed Precip Events Conditions
12:53 AM 68.0 °F - 66.0 °F 93% 30.06 in 6.0 mi Calm Calm - N/A   Mostly Cloudy
1:53 AM 68.0 °F - 66.0 °F 93% 30.02 in 6.0 mi South 3.5 mph - N/A   Scattered Clouds
2:16 AM 68.0 °F - 66.2 °F 94% 30.06 in 5.0 mi WNW 3.5 mph - N/A Thunderstorm Overcast
2:30 AM 68.0 °F - 66.2 °F 94% 30.06 in 3.0 mi Calm Calm - 0.03 in Rain , Thunderstorm Rain
2:32 AM 68.0 °F - 66.2 °F 94% 30.06 in 1.8 mi West 3.5 mph - 0.06 in Rain , Thunderstorm Rain
2:47 AM 68.0 °F - 66.2 °F 94% 30.07 in 0.8 mi WNW 4.6 mph - 0.30 in Rain , Thunderstorm Heavy Thunderstorms and Rain
2:53 AM 68.0 °F - 66.9 °F 96% 30.04 in 0.8 mi NNW 9.2 mph - 0.46 in Rain , Thunderstorm Heavy Thunderstorms and Rain
3:02 AM 68.0 °F - 66.2 °F 94% 30.05 in 1.0 mi NNW 9.2 mph - 0.19 in Rain , Thunderstorm Heavy Thunderstorms and Rain
3:15 AM 68.0 °F - 66.2 °F 94% 30.06 in 0.8 mi WNW 3.5 mph - 0.41 in Rain , Thunderstorm Heavy Thunderstorms and Rain
3:21 AM 68.0 °F - 66.2 °F 94% 30.06 in 1.0 mi NW 3.5 mph - 0.45 in Rain , Thunderstorm Thunderstorms and Rain
3:26 AM 68.0 °F - 66.2 °F 94% 30.06 in 2.0 mi NNE 4.6 mph - 0.47 in Rain , Thunderstorm Heavy Thunderstorms and Rain
3:37 AM 68.0 °F - 66.2 °F 94% 30.05 in 3.0 mi East 3.5 mph - 0.52 in Rain , Thunderstorm Rain
3:44 AM 68.0 °F - 66.2 °F 94% 30.05 in 3.0 mi Calm Calm - 0.54 in Rain Rain
3:53 AM 68.0 °F - 66.9 °F 96% 30.05 in 3.0 mi WNW 6.9 mph - 0.56 in Rain Rain
4:01 AM 68.0 °F - 66.2 °F 94% 30.06 in 4.0 mi NW 3.5 mph - 0.02 in Rain Rain
4:08 AM 68.0 °F - 66.2 °F 94% 30.06 in 4.0 mi NW 3.5 mph - 0.04 in Rain Rain
4:18 AM 66.2 °F - 66.2 °F 100% 30.05 in 4.0 mi NW 4.6 mph - 0.06 in Rain Rain
4:53 AM 66.9 °F - 66.0 °F 97% 30.03 in 5.0 mi Calm Calm - 0.15 in Rain Light Rain
5:53 AM 66.9 °F - 66.0 °F 97% 30.04 in 8.0 mi Calm Calm - 0.07 in Rain Light Rain
6:10 AM 66.2 °F - 66.2 °F 100% 30.05 in 2.5 mi Calm Calm - 0.02 in Rain Light Rain
6:24 AM 66.2 °F - 66.2 °F 100% 30.06 in 4.0 mi SW 3.5 mph - 0.03 in Rain Light Rain
6:53 AM 66.9 °F - 66.0 °F 97% 30.05 in 5.0 mi West 3.5 mph - 0.03 in Fog Patches of Fog
7:05 AM 66.2 °F - 66.2 °F 100% 30.08 in 2.5 mi North 4.6 mph - N/A Fog Patches of Fog
7:30 AM 66.2 °F - 66.2 °F 100% 30.09 in 7.0 mi NW 4.6 mph - 0.00 in Fog , Rain Light Rain
7:53 AM 66.9 °F - 66.0 °F 97% 30.07 in 7.0 mi Calm Calm - 0.00 in   Overcast
8:07 AM 66.2 °F - 66.2 °F 100% 30.09 in 8.0 mi Calm Calm - 0.00 in Rain Light Rain
8:53 AM 68.0 °F - 66.9 °F 96% 30.08 in 7.0 mi Calm Calm - 0.00 in   Overcast
9:53 AM 70.0 °F - 66.9 °F 90% 30.07 in 10.0 mi Calm Calm - N/A   Overcast
10:11 AM 69.8 °F - 66.2 °F 88% 30.09 in 10.0 mi Calm Calm - 0.00 in Rain Light Rain
10:53 AM 71.1 °F - 66.9 °F 87% 30.09 in 10.0 mi Calm Calm - 0.00 in   Overcast
11:06 AM 71.6 °F - 66.2 °F 83% 30.11 in 10.0 mi NW 4.6 mph - N/A   Mostly Cloudy
11:23 AM 71.6 °F - 66.2 °F 83% 30.11 in 10.0 mi WNW 3.5 mph - N/A   Mostly Cloudy
11:53 AM 73.9 °F - 68.0 °F 82% 30.10 in 10.0 mi NW 6.9 mph - N/A   Mostly Cloudy
12:53 PM 78.1 °F - 66.9 °F 68% 30.09 in 10.0 mi Variable 4.6 mph - N/A   Mostly Cloudy
1:00 PM 77.0 °F - 66.2 °F 69% 30.11 in 10.0 mi Variable 4.6 mph - N/A   Scattered Clouds
1:53 PM 79.0 °F - 64.0 °F 60% 30.09 in 10.0 mi NNE 8.1 mph - N/A   Partly Cloudy
2:53 PM 81.0 °F 82.5 °F 64.0 °F 56% 30.08 in 10.0 mi NNE 5.8 mph - N/A   Partly Cloudy
3:53 PM 82.0 °F 83.8 °F 64.9 °F 56% 30.07 in 10.0 mi North 3.5 mph - N/A   Scattered Clouds
4:53 PM 80.1 °F 81.5 °F 63.0 °F 56% 30.06 in 10.0 mi Calm Calm - N/A   Scattered Clouds
5:53 PM 73.9 °F - 64.9 °F 73% 30.08 in 9.0 mi NW 8.1 mph - 0.00 in Rain Light Rain
6:53 PM 72.0 °F - 62.1 °F 71% 30.08 in 10.0 mi Calm Calm - 0.00 in   Scattered Clouds
7:53 PM 72.0 °F - 62.1 °F 71% 30.11 in 10.0 mi NE 4.6 mph - N/A   Clear
8:53 PM 68.0 °F - 64.9 °F 90% 30.12 in 10.0 mi Calm Calm - 0.02 in   Clear
9:53 PM 66.0 °F - 64.9 °F 96% 30.14 in 1.8 mi Calm Calm - N/A   Clear
10:02 PM 66.2 °F - 64.4 °F 94% 30.16 in 2.5 mi Calm Calm - N/A   Clear
10:15 PM 64.4 °F - 64.4 °F 100% 30.16 in 1.2 mi Calm Calm - N/A   Clear
10:25 PM 64.4 °F - 64.4 °F 100% 30.16 in 2.0 mi Calm Calm - N/A   Clear
10:48 PM 64.4 °F - 62.6 °F 94% 30.16 in 0.8 mi Calm Calm - N/A   Clear
10:53 PM 64.0 °F - 63.0 °F 96% 30.15 in 0.5 mi Calm Calm - N/A Fog Fog
11:02 PM 64.4 °F - 62.6 °F 94% 30.17 in 2.0 mi Calm Calm - N/A   Clear
11:10 PM 64.4 °F - 62.6 °F 94% 30.17 in 4.0 mi Calm Calm - N/A   Clear
11:53 PM 63.0 °F - 62.1 °F 97% 30.17 in 3.0 mi Calm Calm - N/A   Clear